TimeCEST,TemperatureF,Dew PointF,Humidity,Sea Level PressureIn,VisibilityMPH,Wind Direction,Wind SpeedMPH,Gust SpeedMPH,PrecipitationIn,Events,Conditions,WindDirDegrees,DateUTC
12:15 AM,48.2,42.8,82,29.98,-9999.0,NW,17.9,-,N/A,,Clear,310,2012-10-07 22:15:00
12:45 AM,48.2,41.0,76,29.98,6.2,NW,17.9,-,N/A,,Scattered Clouds,310,2012-10-07 22:45:00
1:15 AM,48.2,41.0,76,30.01,6.2,NW,17.9,-,N/A,,Scattered Clouds,310,2012-10-07 23:15:00
1:45 AM,48.2,39.2,71,30.01,6.2,NW,15.7,26.8,N/A,,Scattered Clouds,310,2012-10-07 23:45:00
2:15 AM,48.2,39.2,71,30.04,6.2,WNW,13.4,-,N/A,,Partly Cloudy,300,2012-10-08 00:15:00
2:45 AM,46.4,39.2,76,30.04,-9999.0,NW,15.7,-,N/A,,Clear,310,2012-10-08 00:45:00
3:15 AM,46.4,41.0,81,30.06,-9999.0,WNW,11.2,-,N/A,,Clear,290,2012-10-08 01:15:00
3:45 AM,-9999,-9999,N/A,-9999,6.2,NW,11.2,-,N/A,,Clear,310,2012-10-08 01:45:00
4:15 AM,44.6,42.8,93,30.06,-9999.0,WNW,11.2,-,N/A,,Clear,290,2012-10-08 02:15:00
4:45 AM,44.6,41.0,87,30.06,-9999.0,WNW,11.2,-,N/A,,Clear,290,2012-10-08 02:45:00
5:15 AM,46.4,41.0,81,30.06,-9999.0,WNW,13.4,-,N/A,,Clear,300,2012-10-08 03:15:00
5:45 AM,44.6,41.0,87,30.09,-9999.0,WNW,13.4,-,N/A,,Clear,300,2012-10-08 03:45:00
6:15 AM,44.6,42.8,93,30.09,-9999.0,WNW,15.7,-,N/A,,Clear,290,2012-10-08 04:15:00
6:45 AM,-9999,-9999,N/A,-9999,-9999.0,WNW,13.4,-,N/A,,Clear,300,2012-10-08 04:45:00
7:15 AM,46.4,42.8,87,30.09,-9999.0,WNW,15.7,-,N/A,,Clear,290,2012-10-08 05:15:00
7:45 AM,48.2,42.8,82,30.12,-9999.0,WNW,13.4,-,N/A,,Clear,290,2012-10-08 05:45:00
8:15 AM,48.2,42.8,82,30.12,-9999.0,WNW,13.4,-,N/A,,Clear,290,2012-10-08 06:15:00
8:38 AM,50.0,42.8,76,30.12,-9999.0,WNW,15.7,26.8,N/A,,Clear,300,2012-10-08 06:38:00
8:45 AM,50.0,42.8,76,30.12,-9999.0,WNW,15.7,-,N/A,,Clear,290,2012-10-08 06:45:00
9:15 AM,51.8,42.8,71,30.12,6.2,WNW,15.7,-,N/A,,Partly Cloudy,290,2012-10-08 07:15:00
9:45 AM,-9999,-9999,N/A,-9999,6.2,WNW,13.4,-,N/A,,Clear,300,2012-10-08 07:45:00
10:15 AM,53.6,41.0,62,30.15,6.2,NW,20.1,-,N/A,,Partly Cloudy,310,2012-10-08 08:15:00
10:45 AM,53.6,42.8,67,30.12,6.2,WNW,15.7,-,N/A,,Partly Cloudy,300,2012-10-08 08:45:00
11:15 AM,55.4,39.2,54,30.12,6.2,NW,17.9,29.1,N/A,,Partly Cloudy,310,2012-10-08 09:15:00
11:45 AM,57.2,39.2,51,30.12,6.2,NW,17.9,29.1,N/A,,Partly Cloudy,310,2012-10-08 09:45:00
12:15 PM,57.2,37.4,48,30.12,6.2,NW,17.9,29.1,N/A,,Partly Cloudy,310,2012-10-08 10:15:00
12:45 PM,-9999,-9999,N/A,-9999,6.2,NW,15.7,26.8,N/A,,Scattered Clouds,310,2012-10-08 10:45:00
1:15 PM,57.2,33.8,41,30.09,6.2,NW,15.7,29.1,N/A,,Partly Cloudy,310,2012-10-08 11:15:00
2:15 PM,59.0,35.6,42,30.09,6.2,NW,13.4,24.6,N/A,,Scattered Clouds,320,2012-10-08 12:15:00
2:45 PM,59.0,37.4,45,30.09,6.2,NW,13.4,-,N/A,,Scattered Clouds,320,2012-10-08 12:45:00
3:15 PM,57.2,35.6,44,30.09,-9999.0,NNW,11.2,22.4,N/A,,Clear,330,2012-10-08 13:15:00
3:45 PM,-9999,-9999,N/A,-9999,-9999.0,WNW,11.2,-,N/A,,Clear,300,2012-10-08 13:45:00
4:15 PM,57.2,35.6,44,30.09,-9999.0,WNW,13.4,-,N/A,,Clear,300,2012-10-08 14:15:00
4:45 PM,55.4,33.8,44,30.09,-9999.0,NW,13.4,-,N/A,,Clear,310,2012-10-08 14:45:00
5:15 PM,53.6,33.8,47,30.09,-9999.0,WNW,8.9,-,N/A,,Clear,300,2012-10-08 15:15:00
5:45 PM,53.6,35.6,51,30.09,-9999.0,WNW,8.9,-,N/A,,Clear,300,2012-10-08 15:45:00
6:15 PM,51.8,35.6,54,30.09,-9999.0,WNW,4.5,-,N/A,,Clear,290,2012-10-08 16:15:00
6:45 PM,-9999,-9999,N/A,-9999,-9999.0,WNW,6.7,-,N/A,,Clear,290,2012-10-08 16:45:00
7:15 PM,48.2,35.6,62,30.09,-9999.0,West,4.5,-,N/A,,Clear,270,2012-10-08 17:15:00
8:15 PM,42.8,35.6,76,30.09,-9999.0,West,4.5,-,N/A,,Clear,280,2012-10-08 18:15:00
8:45 PM,42.8,35.6,76,30.09,-9999.0,West,4.5,-,N/A,,Clear,280,2012-10-08 18:45:00
9:45 PM,-9999,-9999,N/A,-9999,0.6,Variable,4.5,-,N/A,,Clear,0,2012-10-08 19:45:00
10:15 PM,44.6,37.4,76,30.06,-9999.0,West,4.5,-,N/A,,Clear,270,2012-10-08 20:15:00
10:45 PM,41.0,35.6,81,30.06,-9999.0,West,2.2,-,N/A,,Clear,270,2012-10-08 20:45:00
11:15 PM,41.0,35.6,81,30.06,-9999.0,Calm,Calm,-,N/A,,Clear,0,2012-10-08 21:15:00
11:45 PM,41.0,35.6,81,30.06,-9999.0,WNW,2.2,-,N/A,,Clear,300,2012-10-08 21:45:00